Location: Lugrin
(46.4033°N, 6.6674°E)
Time: 15:51:20
(UTC+00:00)

N. Korean satellite - Pass Details

Date: 30 November 2020
Orbit: 453 x 502 km, 97.2° (Epoch: 15 January)

Event Time Altitude Azimuth Distance (km) Brightness Sun altitude
Rises 04:34:38 0° 21° (NNE) 2,559 10.4 -23.5°
Reaches altitude 10° 04:36:51 10° 31° (NNE) 1,682 9.6 -23.2°
Maximum altitude 04:40:09 33° 97° (E) 844 8.4 -22.6°
Drops below altitude 10° 04:43:29 10° 163° (SSE) 1,690 9.6 -22.0°
Sets 04:45:42 0° 173° (S) 2,573 10.5 -21.7°
